www.pogodaiklimat.ru

Погода и климат >> Архив погоды >> Россия >> Магаданская область >> Талон


АРХИВ ПОГОДЫ в Талоне

Время (UTC), дата Ветер
(напр.,м/с)
 
Видим.   Явления Облачность Т
(С)
Тd
(С)
f
(%)
Тe
(С)
Тes
(С)
Комфортность P
(гПа)
Po
(гПа)
Тmin
(С)
Tmax
(С)
R
(мм)
R24
(мм)
S
(см)
12 13.06 штиль 0 50 км 1/1 1000 м
[Sc]
+4.5 +3.8 95 +3 +3 1019.9 1017.3
15 13.06 Ю 1 50 км 10/6 600 м
[Cb cap Ac und]
+2.2 +2.2 100 0 0 1019.9 1017.3
18 13.06 штиль 0 20 км 10/10 300 м
[St]
+4.9 +4.8 99 +4 +4 1019.9 1017.3
21 13.06 штиль 0 50 км 10/10 300 м
[St]
+7.8 +5.6 86 +7 +7 1019.0 1016.5 +1.4
00 14.06 З 2 50 км 10/8 600 м
[Cb cap Ac und]
+10.6 +5.3 70 +9 +10 1018.6 1016.1
03 14.06 СЗ 2 50 км 9/9 600 м
[Cb cap]
+13.1 +4.8 57 +13 +14 1018.5 1016.0
06 14.06 СЗ 2 50 км 3/3 1000 м
[Cu hum]
+16.0 +4.1 45 +16 +22 1017.2 1014.7
09 14.06 С 1 50 км 9/3 1000 м
[Sc Ci fib]
+15.8 +5.1 49 +17 +17 1017.2 1014.7 +16.7
12 14.06 штиль 0 50 км 3/0
[Ci fib]
+6.0 +5.3 95 +5 +5 1018.6 1016.0
15 14.06 ЮЗ 1 50 км 1/0
[Ac trans]
+0.7 +0.7 100 -2 -2 1020.0 1017.3
18 14.06 Ю 1 50 км 8/0
[Ac trans]
+1.3 +1.3 100 -1 -1 1021.4 1018.7
21 14.06 штиль 0 50 км 10/10 300 м
[St]
+6.8 +4.9 88 +6 +6 1020.5 1017.9 -0.2
00 15.06 В 1 50 км 10/10 600 м
[Cb cap]
+10.9 +5.8 71 +11 +11 1020.7 1018.2
03 15.06 В 2 50 км 8/3 1000 м
[Sc Ac trans Ci fib]
+14.4 +5.7 56 +14 +18 1021.2 1018.7
06 15.06 Ю 2 50 км 3/1 1000 м
[Cu hum Ci fib]
+16.4 +4.7 46 +17 +23 1019.8 1017.3
09 15.06 Ю 3 50 км 4/1 1000 м
[Cu hum Ci fib]
+13.7 +4.3 53 +13 +13 1019.8 1017.3 +16.7
12 15.06 штиль 0 50 км 3/1 1000 м
[Sc Ci fib]
+5.8 +4.4 91 +5 +5 1021.3 1018.7
15 15.06 Ю 1 50 км 3/1 1000 м
[Sc Ci fib]
+0.8 +0.8 100 -1 -1 1021.4 1018.7
18 15.06 штиль 0 50 км 9/3 1000 м
[Sc Ac trans Ci fib]
+0.4 +0.4 100 -1 -1 1020.0 1017.3
21 15.06 ЮЗ 1 50 км {туман} 10/8 600 м
[Cb cap Ac und]
+6.9 +6.7 99 +6 +6 1018.6 1016.0 -0.7
00 16.06 штиль 0 20 км слаб. ливневой дождь {туман} 10/8 600 м
[Cb cap Ac und]
+8.8 +7.3 90 +8 +9 1017.5 1015.0
03 16.06 В 1 20 км ливневой дождь 10/10 600 м
[Cb cap]
+7.9 +7.5 97 +7 +7 1017.3 1014.7
06 16.06 Ю 1 10 км слаб. ливневой дождь 10/10 600 м
[Cb cap]
+8.1 +7.3 95 +7 +7 1015.9 1013.3
09 16.06 Ю 2 50 км {ливн. осадки} 9/8 600 м
[Cb cap Ac trans]
+8.2 +6.2 87 +6 +6 1014.6 1012.0 +10.0 16
12 16.06 ЮВ 2 10 км в посл. час ливневой дождь 10/10 300 м
[Cb cap]
+5.7 +4.3 91 +3 +3 1014.6 1012.1
15 16.06 В 2 20 км {ливн. осадки} 10/10 300 м
[St]
+5.3 +3.5 88 +3 +3 1015.9 1013.3
18 16.06 ЮВ 1 10 км слаб. ливневой дождь 10/10 300 м
[Cb cap]
+4.8 +3.9 94 +3 +3 1017.3 1014.7
21 16.06 ЮВ 2 10 км слаб. ливневой дождь {морось} 10/10 300 м
[Cb cap]
+5.0 +3.5 90 +2 +2 1016.9 1014.3 +4.8 2
00 17.06 ЮВ 1 10 км слаб. ливневой дождь {морось} 10/10 300 м
[Cb cap]
+5.1 +4.3 95 +4 +4 1017.5 1014.9
03 17.06 ЮВ 1 50 км {ливн. осадки, морось} 10/10 300 м
[St]
+8.2 +4.2 76 +8 +8 1017.3 1014.7
06 17.06 В 1 20 км слаб. ливневой дождь {морось} 10/10 300 м
[Cb cap]
+7.3 +6.1 92 +6 +6 1017.3 1014.7
09 17.06 СВ 1 20 км слаб. ливневой дождь 10/10 300 м
[Cb cap]
+7.5 +7.1 97 +6 +6 1015.9 1013.3 +8.2 3
12 17.06 штиль 0 20 км слаб. ливневой дождь 10/10 300 м
[Cb cap]
+7.0 +6.8 99 +6 +6 1013.0 1010.5
15 17.06 штиль 0 20 км слаб. ливневой дождь 10/10 300 м
[Cb cap]
+6.5 +6.5 100 +5 +5 1011.9 1009.3
18 17.06 штиль 0 20 км слаб. ливневой дождь 10/10 300 м
[Cb cap]
+6.5 +6.5 100 +5 +5 1010.6 1008.0
21 17.06 штиль 0 20 км в посл. час морось {ливн. осадки} 10/10 300 м
[St]
+7.5 +7.4 99 +6 +6 1007.6 1005.1 +6.5 11
00 18.06 З 1 50 км {ливн. осадки, морось} 10/5 600 м
[Cb cap Ac und]
+11.7 +9.8 88 +12 +14 1006.4 1003.9
03 18.06 СЗ 2 50 км 9/5 1000 м
[Sc Ac trans Cs]
+15.5 +10.5 72 +15 +17 1006.5 1004.0
06 18.06 ЮВ 1 50 км 10/6 600 м
[Cb cap Ac und]
+17.6 +8.7 56 +19 +19 1005.2 1002.7
09 18.06 С 1 50 км 10/8 600 м
[Cb cap Ac und]
+14.6 +6.7 59 +15 +15 1006.5 1004.0 +19.2
12 18.06 Ю 1 50 км слаб. ливневой дождь 10/5 600 м
[Cb cap Ac und]
+10.6 +9.6 94 +10 +10 1006.4 1003.9
15 18.06 Ю 1 50 км слаб. ливневой дождь 10/6 600 м
[Cb cap Ac und]
+9.6 +9.1 97 +9 +9 1007.8 1005.3
18 18.06 штиль 0 20 км слаб. ливневой дождь 10/10 600 м
[Cb cap]
+9.2 +9.1 99 +8 +8 1007.8 1005.3
21 18.06 штиль 0 50 км слаб. дождь 10/8 1000 м
[Sc As op]
+11.0 +10.3 95 +10 +10 1006.7 1004.3 +9.2 1
00 19.06 штиль 0 50 км {ливн. осадки, дождь} 10/6 600 м
[Cb cap Ac und]
+13.1 +11.2 88 +13 +15 1007.1 1004.6
03 19.06 штиль 0 50 км 10/5 600 м
[Cb cap Ac und]
+15.2 +11.4 78 +15 +15 1009.2 1006.7
06 19.06 ЮВ 1 50 км 10/5 600 м
[Cb cap Ac und]
+15.5 +10.9 74 +16 +16 1009.2 1006.7
09 19.06 Ю 1 50 км 10/6 600 м
[Cb cap Ac und]
+12.8 +8.5 75 +13 +13 1009.2 1006.7 +15.6 0.3
12 19.06 ЮВ 1 50 км 10 баллов +11.3 +9.0 86 +11 +11 1010.5 1008.0
15 19.06 СВ 1 50 км слаб. ливневой дождь 10 баллов +9.8 +9.7 99 +9 +9 1010.6 1008.0
18 19.06 Ю 1 50 км 10 баллов +9.5 +9.4 99 +9 +9 1010.6 1008.0
21 19.06 З 1 20 км 10/10 300 м
[St]
+10.8 +10.4 97 +10 +10 1009.9 1007.4 +9.4 1
00 20.06 штиль 0 20 км в посл. час ливневой дождь 10/10 300 м
[St]
+12.9 +11.0 88 +12 +12 1010.2 1007.7
03 20.06 З 1 50 км 10 баллов +15.4 +11.2 76 +16 +16 1010.5 1008.0
06 20.06 Ю 2 50 км слаб. ливневой дождь 10 баллов +14.0 +11.9 87 +13 +13 1011.8 1009.3

 

Местоположение метеостанции Талон (Магаданская область, Россия): широта 59.76 долгота 148.60 высота над уровнем моря 21 м.

В архиве по умолчанию представлена погода в Талоне за последнюю неделю. Архивные данные за месяц целиком и за предыдущие месяцы, начиная с января 2011 года, Вы можете получить, выбрав интересующий диапазон дат из раскрывающегося списка и нажав кнопку "Ввод!".


*Определитесь, кто Вы:
робот инопланетянин человек

Внимание! Время в таблицах - всемирное. Для получения местного времени необходимо прибавить поправку, которая равна 11 ч.

Смотрите также архив погоды в соседних городах и на ближайших метеорологических станциях:

Погода на Острове Спафарьева (Магаданская область, Россия) (72 км)
Погода в Армани (Магаданская область, Россия) (85 км)
Погода в Магадане (Магаданская область, Россия) (120 км)
Погода в Нагаева (Магаданская область, Россия) (122 км)
Погода в Палатке (Магаданская область, Россия) (134 км)
Погода в Оле (Магаданская область, Россия) (148 км)
Погода в Мадауне (Магаданская область, Россия) (149 км)
Погода в Усть-Омчуге (Магаданская область, Россия) (161 км)
Погода на Мысе Алевина (Магаданская область, Россия) (185 км)
Погода в Колымской (Магаданская область, Россия) (239 км)

Пояснения к столбцам:

Ветер - указаны скорость ветра в м/с - средняя за 10 мин, порывы в срок и между сроками (в фигурных скобках) и направление, откуда дует ветер: С - северный, СВ - северо-восточный, В - восточный, ЮВ - юго-восточный, Ю - южный, ЮЗ - юго-западный, З - западный, СЗ - северо-западный.
Видимость - горизонтальная дальность видимости в метрах или километрах. При видимости от 1 до 10 км при отсутствии осадков обычно наблюдается дымка, при ухудшении видимости до 1 км и менее - туман. В сухую погоду видимость может ухудшаться дымом, пылью или мглою.
Явления - указаны атмосферные явления, наблюдавшиеся в срок или в последний час перед сроком; фигурными скобками обозначены явления, наблюдавшиеся между сроками (за 1-3 часа до срока); квадратными скобками обозначены град или гололедные отложения с указанием их диаметра в мм.
Облачность - указаны через наклонную черту общая и нижняя облачность в баллах и высота нижней границы облаков в метрах; квадратными скобками обозначены формы облаков: Ci - перистые, Cs - перисто-слоистые, Cc - перисто-кучевые, Ac - высококучевые, As - высокослоистые, Sc - слоисто-кучевые, Ns - слоисто-дождевые, Cu - кучевые, Cb - кучево-дождевые. Подробнее классификацию облаков см. в Атласе облаков (PDF).
T - Температура воздуха - температура, измеренная на высоте 2 м над землей.
Td - Температура точки росы - температура, при понижении до которой содержащийся в воздухе водяной пар достигнет насыщения.
f - Относительная влажность воздуха - влажноcть воздуха, измеренная на высоте 2 м над землей.
Te - Эффективная температура - температура, которую ощущает одетый по сезону человек в тени. Характеристика душности погоды. При расчете учитывается влияние влажности воздуха и скорости ветра на теплоощущения человека.
Tes - Эффективная температура на солнце - температура, которую ощущает человек, с поправкой на солнечный нагрев. Характеристика знойности погоды. Зависит от высоты солнца над горизонтом, облачности и скорости ветра. Ночью, в пасмурную погоду, а также при ветре 12 м/с и более поправка равна нулю.
P - Атмосферное давление - приведенное к уровню моря атмосферное давление.
Po - Атмосферное давление - измеренное на уровне метеостанции атмосферное давление.
Tmin - Минимальная температура - минимум температуры воздуха на высоте 2 м над землей.
Tmax - Максимальная температура - максимум температуры воздуха на высоте 2 м над землей.
R - Количество осадков - Количество выпавших осадков за период времени, мм. При наведении курсора мыши на число - период времени, за который выпало указанное количество осадков.
R24 - Количество осадков - Количество выпавших осадков за 24 часа, мм.
S - Снежный покров - Высота снежного покрова, см. При наведении курсора мыши на число - состояние снежного покрова и степень покрытия местности в баллах.